Lid_Strength_Index
1 1 1 1 1 1 2 2 2 2 2 2 2 2 3 3 3 3 3 3 3 3 3 3 2 2 2 3 3 -0 -3 -2 1 2 2 3 3 4 5 5 4 5 5 4 4 4 4
1 1 1 1 1 2 2 2 2 2 2 2 2 2 3 3 3 3 3 3 3 3 3 3 2 2 2 5 1 -1 -0 1 2 1 3 2 3 3 4 4 5 4 4 4 4 4 4
1 1 1 1 1 1 2 2 2 2 2 2 2 2 2 3 3 3 3 3 4 3 3 2 2 1 3 3 1 -0 -0 0 2 1 3 1 1 3 3 5 3 4 6 5 5 5 5
2 2 1 1 1 2 2 2 2 2 2 2 2 2 2 3 3 3 3 4 4 3 3 2 1 2 4 0 0 1 0 1 0 2 1 1 1 2 3 3 4 5 6 8 5 5 4
2 2 2 1 2 2 2 2 2 2 2 2 2 2 3 3 3 3 4 4 3 2 1 1 2 2 4 2 3 1 1 2 1 1 1 1 2 3 4 6 7 6 9 8 7 5 5
2 2 2 2 2 2 2 2 2 2 2 2 3 3 3 3 3 4 4 4 2 1 1 0 1 4 2 4 3 1 0 1 2 2 3 3 4 5 5 6 10 9 9 8 8 6 5
2 2 2 2 2 2 2 2 2 2 2 2 3 3 3 3 4 4 4 1 3 5 2 4 3 3 3 2 1 2 1 2 2 3 5 4 6 7 6 6 6 6 7 8 6 5 6
2 2 2 2 2 2 2 2 2 2 2 3 3 3 3 4 4 5 4 2 2 2 5 2 2 2 2 2 4 3 1 4 4 6 5 6 7 5 5 5 6 6 7 8 6 5 6
2 2 2 2 2 2 2 2 3 3 3 3 3 3 4 4 5 5 2 2 -0 0 4 4 2 3 3 2 4 4 2 3 5 6 6 7 6 5 5 6 7 7 7 7 7 6 5
2 2 2 2 2 2 2 2 2 3 3 3 3 4 4 5 6 1 2 -0 -0 -0 7 6 4 3 2 3 4 2 2 3 5 6 6 6 5 6 6 7 6 8 6 6 7 8 10
2 2 2 2 2 2 2 2 3 3 3 3 4 4 5 6 3 2 1 -1 -0 1 13 5 5 1 2 4 4 4 2 3 5 6 5 7 6 6 7 6 6 7 5 6 7 8 8
1 1 2 2 2 2 2 3 3 3 3 4 4 5 5 3 3 1 -1 -0 1 8 12 7 4 5 5 4 4 3 4 3 3 5 5 6 4 5 6 5 5 5 6 6 7 8 11
1 2 2 2 2 2 3 3 3 3 4 4 5 6 6 2 2 -1 -0 2 8 11 5 7 6 5 5 6 5 5 5 6 7 8 8 7 6 5 4 6 5 6 7 11 11 11 12
1 1 2 2 2 3 3 3 3 4 4 5 6 6 4 2 -0 -0 1 5 11 7 7 5 5 5 7 6 6 6 6 7 5 6 8 9 10 6 5 6 7 7 7 10 13 13 11
1 2 2 2 2 2 3 3 3 4 5 5 7 0 1 -0 0 -0 4 9 8 7 6 6 6 7 7 6 6 6 6 7 6 5 8 9 9 6 6 5 5 7 8 6 9 9 10
2 2 2 2 2 2 3 3 3 4 5 6 4 1 1 -1 -1 1 6 9 7 5 5 5 8 6 8 7 7 7 7 5 6 5 5 6 9 6 6 5 5 6 5 9 9 12 13
2 2 2 2 2 2 3 3 3 4 5 6 2 4 1 -1 0 4 8 7 5 4 4 6 7 7 7 7 7 7 7 6 5 5 5 6 7 7 6 7 7 7 8 7 8 9 12
2 2 2 2 2 2 2 3 4 5 6 4 2 6 2 -0 5 5 6 5 8 5 4 5 5 6 7 6 7 7 8 6 5 5 7 5 7 9 8 6 5 6 7 7 10 10 9
2 2 2 2 2 2 2 4 5 6 6 4 4 4 1 1 7 7 5 5 5 5 5 5 6 5 5 7 8 7 6 5 5 5 7 6 8 11 9 7 7 8 7 7 7 7 10
2 2 1 1 2 2 3 4 5 6 6 5 4 6 3 3 4 6 6 6 6 4 5 5 5 5 6 7 6 7 7 5 4 5 4 4 7 9 11 10 8 9 8 7 8 11 10
2 2 2 2 2 2 3 4 5 6 6 4 3 5 4 6 5 5 5 6 7 7 5 5 6 6 6 8 7 7 6 6 5 6 5 6 9 8 8 7 7 8 8 8 9 8 11
2 2 2 2 2 3 3 4 4 5 6 2 4 5 4 5 5 6 7 6 7 6 6 7 7 6 6 7 7 8 7 7 7 5 6 5 9 8 9 8 8 9 8 7 7 7 8
2 2 2 2 2 3 3 3 4 5 5 2 2 2 3 6 5 6 6 6 6 5 5 5 5 6 6 6 5 5 5 6 5 6 6 7 8 9 11 8 8 11 8 8 7 7 7
2 2 2 2 2 3 3 3 4 4 5 3 2 2 5 6 5 6 5 5 6 5 6 5 5 5 4 4 4 4 4 5 4 5 4 6 7 8 10 9 14 8 6 7 8 8 7
3 3 2 2 3 3 3 3 3 4 5 3 2 2 4 7 5 5 6 6 5 5 6 6 5 4 3 4 6 7 7 7 6 5 5 5 7 9 11 11 9 8 9 9 10 10 7
3 3 3 3 3 3 3 3 3 4 4 3 2 2 2 5 6 5 6 6 6 5 5 5 3 3 3 5 6 10 10 9 9 7 5 5 5 8 10 13 14 11 8 6 6 12 7
3 3 3 2 3 3 4 4 3 4 4 4 2 1 2 5 4 4 5 5 4 5 5 5 5 5 3 6 8 9 9 7 10 10 9 9 8 10 10 11 12 7 6 6 13 13 7
3 3 3 3 3 4 4 4 4 4 4 4 2 1 3 4 4 4 3 4 4 4 6 4 5 4 5 7 8 8 8 8 8 7 8 9 10 10 10 12 15 6 6 9 7 6 5
3 3 3 3 3 4 4 4 4 4 4 4 3 2 2 3 3 2 2 2 2 3 4 3 5 5 5 7 6 6 8 7 8 10 6 10 8 9 9 9 6 5 5 4 4 5 5